FFT4171 KTTN-KTPA

Flight info

Callsign FFT4171
Flight time N/A
Altitude 36000
Route STOEN Q75 TEUFL BAAMF DADES2
Aircraft A320/M-SDE3FGHIRWY/LB1

Departure

Time N/A
Airport Trenton Mercer Airport (KTTN)

Arrival

Time 2026-05-08 02:03
Airport Tampa International Airport (KTPA)
Time Latitude Longitude Altitude Speed Heading
2026-05-08 01:42 29.68375 -82.35276 34263 ft 465 kts 186°
2026-05-08 01:42 29.65118 -82.35096 33240 ft 472 kts 186°
2026-05-08 01:43 29.61827 -82.34908 32275 ft 475 kts 185°
2026-05-08 01:43 29.59631 -82.34781 31544 ft 479 kts 185°
2026-05-08 01:43 29.56301 -82.34589 30783 ft 478 kts 185°
2026-05-08 01:43 29.53001 -82.34393 30167 ft 474 kts 185°
2026-05-08 01:44 29.49716 -82.34200 29428 ft 470 kts 185°
2026-05-08 01:44 29.46473 -82.34011 28795 ft 464 kts 185°
2026-05-08 01:44 29.43264 -82.33826 28153 ft 459 kts 185°
2026-05-08 01:44 29.40095 -82.33645 27528 ft 454 kts 184°
2026-05-08 01:45 29.36951 -82.33389 26907 ft 451 kts 182°
2026-05-08 01:45 29.33834 -82.33042 26292 ft 449 kts 181°
2026-05-08 01:45 29.30740 -82.32640 25656 ft 446 kts 180°
2026-05-08 01:45 29.27670 -82.32221 25075 ft 442 kts 180°
2026-05-08 01:46 29.24624 -82.31813 24478 ft 439 kts 180°
2026-05-08 01:46 29.21597 -82.31425 23916 ft 436 kts 181°
2026-05-08 01:46 29.18586 -82.31060 23294 ft 433 kts 181°
2026-05-08 01:46 29.15611 -82.30712 22742 ft 427 kts 181°
2026-05-08 01:47 29.12669 -82.30369 22242 ft 422 kts 181°
2026-05-08 01:47 29.09766 -82.30030 21747 ft 416 kts 181°
2026-05-08 01:47 29.06907 -82.29693 21261 ft 412 kts 181°
2026-05-08 01:48 29.01272 -82.29026 20299 ft 403 kts 181°
2026-05-08 01:48 28.98489 -82.28694 19822 ft 400 kts 180°
2026-05-08 01:48 28.95728 -82.28365 19328 ft 398 kts 180°
2026-05-08 01:48 28.92979 -82.28039 18836 ft 397 kts 180°
2026-05-08 01:49 28.90237 -82.27713 18320 ft 396 kts 180°
2026-05-08 01:49 28.87501 -82.27388 17766 ft 394 kts 180°
2026-05-08 01:49 28.84781 -82.27067 17255 ft 392 kts 180°
2026-05-08 01:49 28.82077 -82.26749 16755 ft 390 kts 180°
2026-05-08 01:50 28.79385 -82.26431 16240 ft 388 kts 179°
2026-05-08 01:50 28.76710 -82.26114 15734 ft 386 kts 179°
2026-05-08 01:50 28.74080 -82.25813 15233 ft 383 kts 181°
2026-05-08 01:50 28.71442 -82.25746 14807 ft 376 kts 184°
2026-05-08 01:51 28.68819 -82.25709 14204 ft 378 kts 183°
2026-05-08 01:51 28.66196 -82.25672 13671 ft 376 kts 183°
2026-05-08 01:51 28.63586 -82.25631 13144 ft 374 kts 183°
2026-05-08 01:51 28.60995 -82.25584 12633 ft 371 kts 182°
2026-05-08 01:52 28.58427 -82.25531 12110 ft 368 kts 182°
2026-05-08 01:52 28.55879 -82.25478 11598 ft 365 kts 182°
2026-05-08 01:52 28.53350 -82.25429 11075 ft 362 kts 182°
2026-05-08 01:52 28.50838 -82.25387 10558 ft 360 kts 182°
2026-05-08 01:53 28.48379 -82.25354 10423 ft 346 kts 182°
2026-05-08 01:53 28.46024 -82.25321 10306 ft 333 kts 182°
2026-05-08 01:53 28.43751 -82.25291 10186 ft 321 kts 182°
2026-05-08 01:53 28.41558 -82.25263 10071 ft 310 kts 182°
2026-05-08 01:54 28.39434 -82.25236 9871 ft 302 kts 182°
2026-05-08 01:54 28.37360 -82.25423 9502 ft 297 kts 196°
2026-05-08 01:54 28.35446 -82.26227 9116 ft 291 kts 211°
2026-05-08 01:54 28.33813 -82.27541 8732 ft 287 kts 222°
2026-05-08 01:55 28.32292 -82.28999 8341 ft 286 kts 222°
2026-05-08 01:55 28.30905 -82.30593 7954 ft 282 kts 236°
2026-05-08 01:55 28.29998 -82.32544 7562 ft 280 kts 252°
2026-05-08 01:55 28.29615 -82.34697 7177 ft 278 kts 263°
2026-05-08 01:56 28.29377 -82.36832 7048 ft 267 kts 263°
2026-05-08 01:56 28.29144 -82.38855 6856 ft 259 kts 263°
2026-05-08 01:56 28.28931 -82.40876 6531 ft 257 kts 264°
2026-05-08 01:56 28.28807 -82.42889 6177 ft 256 kts 269°
2026-05-08 01:57 28.28830 -82.44885 6011 ft 249 kts 272°
2026-05-08 01:57 28.28762 -82.46820 5829 ft 245 kts 258°
2026-05-08 01:57 28.28021 -82.48591 5185 ft 257 kts 230°
2026-05-08 01:57 28.26564 -82.49818 4577 ft 268 kts 202°
2026-05-08 01:58 28.24736 -82.50282 4109 ft 271 kts 191°
2026-05-08 01:58 28.22878 -82.50625 3676 ft 268 kts 191°
2026-05-08 01:58 28.21089 -82.50958 3409 ft 251 kts 191°
2026-05-08 01:58 28.19440 -82.51264 3347 ft 233 kts 192°
2026-05-08 01:59 28.17850 -82.51564 3273 ft 231 kts 192°
2026-05-08 01:59 28.16269 -82.51865 3172 ft 230 kts 191°
2026-05-08 01:59 28.14681 -82.52165 3012 ft 232 kts 189°
2026-05-08 01:59 28.13068 -82.52326 2749 ft 233 kts 184°
2026-05-08 02:00 28.11462 -82.52391 2457 ft 228 kts 184°
2026-05-08 02:00 28.09898 -82.52440 2162 ft 222 kts 184°
2026-05-08 02:00 28.08382 -82.52490 1908 ft 213 kts 185°
2026-05-08 02:00 28.06954 -82.52538 1631 ft 203 kts 185°
2026-05-08 02:01 28.05583 -82.52585 1375 ft 189 kts 184°
2026-05-08 02:01 28.04347 -82.52627 1132 ft 169 kts 185°
2026-05-08 02:01 28.03221 -82.52665 923 ft 155 kts 184°
2026-05-08 02:01 28.02169 -82.52702 734 ft 149 kts 184°
2026-05-08 02:02 28.01146 -82.52735 552 ft 145 kts 183°
2026-05-08 02:02 28.00140 -82.52773 358 ft 143 kts 184°
2026-05-08 02:02 27.99149 -82.52804 136 ft 141 kts 185°
2026-05-08 02:02 27.98178 -82.52843 38 ft 133 kts 182°
2026-05-08 02:03 27.97410 -82.52866 38 ft 86 kts 182°
2026-05-08 02:03 27.96981 -82.52881 37 ft 39 kts 182°
2026-05-08 02:03 27.96873 -82.52947 38 ft 17 kts 269°
2026-05-08 02:03 27.96969 -82.53002 36 ft 19 kts
2026-05-08 02:04 27.97099 -82.53002 37 ft 19 kts 354°
2026-05-08 02:04 27.97233 -82.52995 39 ft 19 kts 359°
2026-05-08 02:04 27.97307 -82.53046 38 ft 13 kts 262°
2026-05-08 02:04 27.97306 -82.53156 37 ft 15 kts 270°
2026-05-08 02:05 27.97310 -82.53283 37 ft 17 kts 272°
2026-05-08 02:05 27.97314 -82.53420 37 ft 19 kts 272°
2026-05-08 02:05 27.97332 -82.53583 28 ft 25 kts 289°
2026-05-08 02:05 27.97416 -82.53759 31 ft 24 kts 305°
2026-05-08 02:06 27.97504 -82.53918 34 ft 24 kts 295°
2026-05-08 02:06 27.97618 -82.53983 34 ft 21 kts
2026-05-08 02:06 27.97768 -82.53977 33 ft 19 kts
2026-05-08 02:06 27.97822 -82.53865 34 ft 16 kts 81°
2026-05-08 02:07 27.97860 -82.53790 37 ft 9 kts 351°
2026-05-08 02:07 27.97899 -82.53799 37 ft 0 kts 352°
2026-05-08 02:07 27.97900 -82.53799 37 ft 0 kts 352°
2026-05-08 02:08 27.97899 -82.53799 37 ft 0 kts 352°